Weather History for KJES - August, 2014

Change the Weather History Date:

Wednesday, August 13, 2014

  Actual Average (KLHW) Record (KLHW)
Temperature  
Mean Temperature 82 °F -  
Max Temperature 91 °F 89 °F 97 °F (2010)
Min Temperature 73 °F 70 °F 63 °F (1967)
Cooling Degree Days 17    
Growing Degree Days 32 (Base 50)    
Moisture  
Dew Point 76 °F    
Average Humidity 85    
Maximum Humidity 100    
Minimum Humidity 63    
Precipitation  
Precipitation 0.00 in - - ()
Sea Level Pressure  
Sea Level Pressure 29.94 in    
Wind  
Wind Speed 4 mph (WSW)    
Max Wind Speed 9 mph    
Max Gust Speed 23 mph    
Visibility 9 miles    
Events Rain    
Averages and records for this station are not official NWS values.
T = Trace of Precipitation, MM = Missing Value Source: NWS Daily Summary

Daily Weather History Graph

Daily Weather History Graph

Search for Another Location

Airport or City:

Trip Planner

Search our weather history database for the weather conditions in past years. The results will help you decide how hot, cold, wet, or windy it might be!

Date:

Astronomy

Aug. 13, 2014 Rise Set
Actual Time 6:51 AM EDT 8:12 PM EDT
Civil Twilight 6:25 AM EDT 8:38 PM EDT
Nautical Twilight 5:54 AM EDT 9:09 PM EDT
Astronomical Twilight 5:23 AM EDT 9:40 PM EDT
Moon 10:15 PM EDT (8/13) 10:02 AM EDT (8/13)
Length of Visible Light 14h 12m
Length of Day
13h 21m
Waning Gibbous, 88% of the Moon is Illuminated
Aug 13
Waning Gibbous
Aug 17
Last Quarter
Aug 25
New
Sep 2
First Quarter
Sep 8
Full

Hourly Weather History & Observations

Time (EDT) Temp. Heat Index Dew Point Humidity Pressure Visibility Wind Dir Wind Speed Gust Speed Precip Events Conditions
12:15 AM 78.8 °F - 77.0 °F 94% 29.93 in 10.0 mi West 5.8 mph - N/A   Unknown
12:35 AM 78.8 °F - 75.2 °F 89% 29.93 in 10.0 mi WSW 4.6 mph - N/A   Unknown
12:55 AM 77.0 °F - 75.2 °F 94% 29.93 in 10.0 mi WSW 4.6 mph - N/A   Unknown
1:15 AM 77.0 °F - 75.2 °F 94% 29.93 in 10.0 mi WSW 3.5 mph - N/A   Unknown
1:35 AM 77.0 °F - 75.2 °F 94% 29.93 in 10.0 mi WSW 3.5 mph - N/A   Unknown
1:55 AM 77.0 °F - 73.4 °F 89% 29.93 in 10.0 mi Calm Calm - N/A   Unknown
2:15 AM 77.0 °F - 73.4 °F 89% 29.93 in 10.0 mi Calm Calm - N/A   Unknown
2:35 AM 77.0 °F - 73.4 °F 89% 29.93 in 7.0 mi Calm Calm - N/A   Unknown
2:55 AM 77.0 °F - 73.4 °F 89% 29.93 in 7.0 mi Calm Calm - N/A   Unknown
3:15 AM 75.2 °F - 73.4 °F 94% 29.93 in 7.0 mi Calm Calm - N/A   Unknown
3:35 AM 75.2 °F - 73.4 °F 94% 29.92 in 7.0 mi Calm Calm - N/A   Unknown
3:55 AM 75.2 °F - 73.4 °F 94% 29.93 in 5.0 mi Calm Calm - N/A   Mist
4:15 AM 75.2 °F - 73.4 °F 94% 29.92 in 5.0 mi Calm Calm - N/A   Mist
4:35 AM 73.4 °F - 73.4 °F 100% 29.93 in 5.0 mi SSW 3.5 mph - N/A   Mist
4:55 AM 73.4 °F - 73.4 °F 100% 29.92 in 5.0 mi Calm Calm - N/A   Mist
5:15 AM 73.4 °F - 73.4 °F 100% 29.92 in 5.0 mi WSW 3.5 mph - N/A   Mist
5:35 AM 75.2 °F - 73.4 °F 94% 29.92 in 5.0 mi Calm Calm - N/A   Mist
5:55 AM 75.2 °F - 73.4 °F 94% 29.92 in 5.0 mi Calm Calm - N/A   Mist
6:15 AM 75.2 °F - 73.4 °F 94% 29.93 in 7.0 mi West 4.6 mph - N/A   Unknown
6:35 AM 75.2 °F - 73.4 °F 94% 29.93 in 7.0 mi Calm Calm - N/A   Unknown
7:15 AM 75.2 °F - 73.4 °F 94% 29.94 in 5.0 mi WSW 3.5 mph - N/A   Mist
7:35 AM 77.0 °F - 75.2 °F 94% 29.95 in 5.0 mi WSW 3.5 mph - N/A   Mist
7:55 AM 77.0 °F - 75.2 °F 94% 29.95 in 7.0 mi Calm Calm - N/A   Unknown
8:55 AM 80.6 °F 87.1 °F 77.0 °F 89% 29.96 in 10.0 mi West 5.8 mph - N/A   Unknown
9:15 AM 82.4 °F 90.9 °F 77.0 °F 84% 29.96 in 10.0 mi West 8.1 mph - N/A   Unknown
9:55 AM 84.2 °F 94.1 °F 77.0 °F 79% 29.97 in 10.0 mi West 8.1 mph - N/A   Unknown
10:35 AM 86.0 °F 99.3 °F 78.8 °F 79% 29.97 in 10.0 mi West 8.1 mph - N/A   Unknown
10:55 AM 87.8 °F 99.7 °F 77.0 °F 70% 29.97 in 10.0 mi West 8.1 mph - N/A   Unknown
11:15 AM 87.8 °F 102.5 °F 78.8 °F 75% 29.97 in 10.0 mi WNW 8.1 mph - N/A   Unknown
11:35 AM 87.8 °F 102.5 °F 78.8 °F 75% 29.97 in 10.0 mi West 9.2 mph - N/A   Unknown
11:55 AM 89.6 °F 102.2 °F 77.0 °F 66% 29.96 in 10.0 mi West 6.9 mph - N/A   Unknown
12:15 PM 89.6 °F 102.2 °F 77.0 °F 66% 29.96 in 10.0 mi WNW 8.1 mph - N/A   Unknown
12:35 PM 89.6 °F 102.2 °F 77.0 °F 66% 29.96 in 10.0 mi WNW 8.1 mph - N/A   Unknown
12:55 PM 89.6 °F 102.2 °F 77.0 °F 66% 29.95 in 10.0 mi WNW 6.9 mph - N/A   Unknown
1:15 PM 89.6 °F 102.2 °F 77.0 °F 66% 29.95 in 10.0 mi WSW 8.1 mph - N/A   Unknown
1:35 PM 91.4 °F 105.1 °F 77.0 °F 63% 29.95 in 10.0 mi West 5.8 mph - N/A   Unknown
1:55 PM 91.4 °F 105.1 °F 77.0 °F 63% 29.95 in 10.0 mi WSW 9.2 mph - N/A   Unknown
2:15 PM 91.4 °F 105.1 °F 77.0 °F 63% 29.94 in 10.0 mi WSW 5.8 mph - N/A   Unknown
2:35 PM 91.4 °F 105.1 °F 77.0 °F 63% 29.93 in 10.0 mi WSW 9.2 mph - N/A   Unknown
2:55 PM 86.0 °F 96.9 °F 77.0 °F 74% 29.92 in 5.0 mi WSW 6.9 mph 23.0 mph N/A Rain Heavy Rain
3:15 PM 87.8 °F 102.5 °F 78.8 °F 75% 29.91 in 10.0 mi West 3.5 mph - N/A   Unknown
3:35 PM 82.4 °F 90.9 °F 77.0 °F 84% 29.92 in 10.0 mi West 3.5 mph - N/A Rain Light Rain
3:55 PM 80.6 °F 87.1 °F 77.0 °F 89% 29.93 in 10.0 mi SSW 6.9 mph - N/A Rain Light Rain
4:15 PM 80.6 °F 86.2 °F 75.2 °F 84% 29.93 in 10.0 mi WSW 6.9 mph - N/A   Light Drizzle
4:35 PM 80.6 °F 86.2 °F 75.2 °F 84% 29.93 in 10.0 mi SSW 4.6 mph - N/A   Unknown
4:55 PM 80.6 °F 86.2 °F 75.2 °F 84% 29.92 in 10.0 mi SW 6.9 mph - N/A   Unknown
5:15 PM 78.8 °F - 75.2 °F 89% 29.92 in 10.0 mi SSW 3.5 mph - N/A   Unknown
5:35 PM 78.8 °F - 75.2 °F 89% 29.91 in 10.0 mi Calm Calm - N/A   Unknown
6:15 PM 80.6 °F 87.1 °F 77.0 °F 89% 29.93 in 10.0 mi SSW 3.5 mph - N/A   Unknown
6:35 PM 80.6 °F 87.1 °F 77.0 °F 89% 29.93 in 10.0 mi SW 4.6 mph - N/A   Unknown
6:55 PM 82.4 °F 90.9 °F 77.0 °F 84% 29.94 in 10.0 mi SW 4.6 mph - N/A   Unknown
7:15 PM 80.6 °F 87.1 °F 77.0 °F 89% 29.94 in 10.0 mi SW 4.6 mph - N/A   Unknown
7:35 PM 80.6 °F 87.1 °F 77.0 °F 89% 29.94 in 10.0 mi SW 3.5 mph - N/A   Unknown